DW7589 Weather Reports


time (UTC)temp
C
wind
direction
speed
KPH
gust
KPH
rain 1hr
cm
rain 24hr
cm
rain mn
cm
humidity
%
barometer
mb
20260905114237 23 0 0.0 0.0 0.00 0.00 0.00 90 1013.4
20260905113738 23 0 0.0 0.0 0.00 0.00 0.00 89 1013.3
20260905113237 23 0 0.0 0.0 0.00 0.00 0.00 88 1013.3
20260905111738 23 0 0.0 0.0 0.00 0.00 0.00 88 1013.1
20260905111238 23 0 0.0 0.0 0.00 0.00 0.00 88 1013.2
20260905105737 23 0 0.0 0.0 0.00 0.00 0.00 88 1013.4
20260905105238 23 0 0.0 0.0 0.00 0.00 0.00 88 1013.4
20260905104737 23 0 0.0 0.0 0.00 0.00 0.00 86 1013.3
20260905104237 24 0 0.0 0.0 0.00 0.00 0.00 86 1013.3
20260905103737 24 0 0.0 0.0 0.00 0.00 0.00 86 1013.4
20260905103238 24 0 0.0 0.0 0.00 0.00 0.00 85 1013.3
20260905102737 24 0 0.0 0.0 0.00 0.00 0.00 85 1013.4
20260905102238 24 0 0.0 0.0 0.00 0.00 0.00 85 1013.5
20260905101237 25 0 0.0 0.0 0.00 0.00 0.00 85 1013.4
20260905100738 24 0 0.0 0.0 0.00 0.00 0.00 86 1013.3
20260905100238 24 0 0.0 0.0 0.00 0.00 0.00 86 1013.3
20260905095738 24 0 0.0 0.0 0.00 0.00 0.00 86 1013.3
20260905095238 24 0 0.0 0.0 0.00 0.00 0.00 85 1013.4
20260905094737 25 0 0.0 0.0 0.00 0.00 0.00 84 1013.2
20260905094237 25 0 0.0 0.0 0.00 0.00 0.00 84 1013.3
20260905093738 25 0 0.0 0.0 0.00 0.00 0.00 83 1013.2
20260905093238 25 0 0.0 0.0 0.00 0.00 0.00 83 1013.1
20260905092737 25 0 0.0 1.6 0.00 0.00 0.00 84 1013.1
20260905092238 25 0 0.0 1.6 0.00 0.00 0.00 84 1013.2
20260905091739 25 0 0.0 3.2 0.00 0.00 0.00 84 1013.2
20260905091239 25 0 0.0 3.2 0.00 0.00 0.00 84 1013.2
20260905090738 25 0 0.0 1.6 0.00 0.00 0.00 83 1013.2
20260905085738 25 0 0.0 3.2 0.00 0.00 0.00 83 1013.0
20260905085238 25 0 0.0 1.6 0.00 0.00 0.00 83 1013.2
20260905084238 25 0 0.0 1.6 0.00 0.00 0.00 83 1013.1
20260905083238 25 0 0.0 1.6 0.00 0.00 0.00 83 1012.9
20260905082739 25 0 0.0 1.6 0.00 0.00 0.00 82 1012.9
20260905081738 25 169 1.6 4.8 0.00 0.00 0.00 81 1013.0
20260905080738 25 182 1.6 3.2 0.00 0.00 0.00 80 1013.1
20260905080237 26 0 0.0 3.2 0.00 0.00 0.00 80 1013.0
20260905075238 26 0 0.0 1.6 0.00 0.00 0.00 80 1013.1
20260905074737 26 0 0.0 1.6 0.00 0.00 0.00 80 1013.2
20260905073738 26 0 0.0 1.6 0.00 0.00 0.00 80 1013.3
20260905073238 26 0 0.0 1.6 0.00 0.00 0.00 80 1013.3
20260905072738 26 0 0.0 0.0 0.00 0.00 0.00 79 1013.3
20260905072238 26 0 0.0 0.0 0.00 0.00 0.00 79 1013.3
20260905071238 26 0 0.0 1.6 0.00 0.00 0.00 78 1013.4
20260905070738 26 0 0.0 1.6 0.00 0.00 0.00 78 1013.4
20260905070239 26 0 0.0 1.6 0.00 0.00 0.00 78 1013.3
20260905065738 26 0 0.0 1.6 0.00 0.00 0.00 78 1013.3
20260905065238 26 0 0.0 1.6 0.00 0.00 0.00 78 1013.3
20260905064738 26 0 0.0 1.6 0.00 0.00 0.00 77 1013.4
20260905064238 26 0 0.0 1.6 0.00 0.00 0.00 77 1013.5
20260905063738 26 0 0.0 1.6 0.00 0.00 0.00 77 1013.6
20260905063237 26 0 0.0 1.6 0.00 0.00 0.00 77 1013.6
20260905062237 26 0 0.0 3.2 0.00 0.00 0.00 76 1013.6
20260905060738 27 168 1.6 4.8 0.00 0.00 0.00 75 1013.4
20260905060238 27 0 0.0 3.2 0.00 0.00 0.00 75 1013.3
20260905055738 27 0 0.0 1.6 0.00 0.00 0.00 75 1013.3
20260905055239 27 0 0.0 1.6 0.00 0.00 0.00 75 1013.3
20260905054738 27 173 1.6 3.2 0.00 0.00 0.00 74 1013.4
20260905054239 27 176 1.6 3.2 0.00 0.00 0.00 74 1013.4
20260905053738 27 181 1.6 3.2 0.00 0.00 0.00 74 1013.5
20260905053238 27 178 1.6 3.2 0.00 0.00 0.00 73 1013.3
20260905052738 27 172 1.6 3.2 0.00 0.00 0.00 73 1013.3
20260905052238 27 169 1.6 3.2 0.00 0.00 0.00 73 1013.4
20260905051737 27 166 1.6 6.4 0.00 0.00 0.00 73 1013.3
20260905051238 27 165 1.6 6.4 0.00 0.00 0.00 73 1013.3
20260905050237 27 0 0.0 1.6 0.00 0.00 0.00 73 1013.2
20260905045740 27 0 0.0 3.2 0.00 0.00 0.00 72 1013.3
20260905044738 27 0 0.0 1.6 0.00 0.00 0.00 71 1013.4
20260905044240 27 0 0.0 1.6 0.00 0.00 0.00 71 1013.4
20260905043738 27 0 0.0 1.6 0.00 0.00 0.00 71 1013.4
20260905043239 28 0 0.0 1.6 0.00 0.00 0.00 71 1013.4
20260905042738 28 0 0.0 1.6 0.00 0.00 0.00 70 1013.3
20260905042238 28 162 1.6 3.2 0.00 0.00 0.00 70 1013.4
20260905041739 28 159 1.6 3.2 0.00 0.00 0.00 70 1013.4
20260905041239 28 159 1.6 3.2 0.00 0.00 0.00 69 1013.4
20260905040738 28 161 1.6 4.8 0.00 0.00 0.00 69 1013.4
20260905035738 28 178 1.6 3.2 0.00 0.00 0.00 68 1013.3
20260905035238 28 170 1.6 3.2 0.00 0.00 0.00 68 1013.4
20260905034739 28 163 1.6 4.8 0.00 0.00 0.00 67 1013.4
20260905034238 28 163 1.6 4.8 0.00 0.00 0.00 67 1013.4
20260905033738 28 169 1.6 3.2 0.00 0.00 0.00 67 1013.4
20260905033238 28 179 1.6 4.8 0.00 0.00 0.00 66 1013.4
20260905032739 28 181 1.6 4.8 0.00 0.00 0.00 66 1013.3
20260905032237 29 173 1.6 3.2 0.00 0.00 0.00 65 1013.3
20260905031738 29 167 1.6 3.2 0.00 0.00 0.00 65 1013.4
20260905031238 29 0 0.0 3.2 0.00 0.00 0.00 64 1013.4
20260905030738 29 166 1.6 1.6 0.00 0.00 0.00 64 1013.3
20260905025739 29 170 1.6 3.2 0.00 0.00 0.00 63 1013.1
20260905025238 30 177 1.6 3.2 0.00 0.00 0.00 63 1013.1
20260905024738 30 183 1.6 4.8 0.00 0.00 0.00 63 1013.0
20260905024238 30 178 1.6 4.8 0.00 0.00 0.00 63 1013.1
20260905023739 30 178 1.6 4.8 0.00 0.00 0.00 62 1013.0
20260905023238 30 177 1.6 3.2 0.00 0.00 0.00 62 1012.9
20260905021238 30 159 3.2 8.0 0.00 0.00 0.00 61 1012.5
20260905020738 30 159 3.2 8.0 0.00 0.00 0.00 61 1012.5
20260905020238 31 161 1.6 6.4 0.00 0.00 0.00 60 1012.5
20260905015738 31 164 3.2 6.4 0.00 0.00 0.00 60 1012.4
20260905015238 31 161 3.2 8.0 0.00 0.00 0.00 61 1012.3
20260905014238 31 154 3.2 8.0 0.00 0.00 0.00 61 1012.2
20260905012738 31 162 4.8 11.3 0.00 0.00 0.00 60 1012.1
20260905012238 31 161 6.4 11.3 0.00 0.00 0.00 60 1012.0
20260905011738 31 160 6.4 11.3 0.00 0.00 0.00 59 1012.0
20260905010239 32 164 6.4 14.5 0.00 0.00 0.00 58 1011.8
20260905005738 32 160 8.0 14.5 0.00 0.00 0.00 57 1011.6
20260905005239 32 157 6.4 14.5 0.00 0.00 0.00 55 1011.6
20260905004738 32 154 6.4 12.9 0.00 0.00 0.00 54 1011.5
20260905004240 32 152 6.4 12.9 0.00 0.00 0.00 52 1011.4
20260905003238 32 152 6.4 14.5 0.00 0.00 0.00 51 1011.3
20260905002238 33 154 6.4 16.1 0.00 0.00 0.00 51 1011.3
20260905001738 33 154 6.4 16.1 0.00 0.00 0.00 50 1011.2
20260905001238 33 153 6.4 12.9 0.00 0.00 0.00 49 1011.1
20260905000738 33 152 6.4 11.3 0.00 0.00 0.00 48 1011.0
20260905000241 34 153 4.8 11.3 0.00 0.00 0.00 46 1011.0
20260904235738 34 157 4.8 12.9 0.00 0.00 0.00 46 1011.0
20260904235239 34 158 4.8 12.9 0.00 0.00 0.00 45 1011.0
20260904234739 35 158 4.8 8.0 0.00 0.00 0.00 45 1011.0
20260904233739 35 152 4.8 9.7 0.00 0.00 0.00 42 1011.0
20260904233238 35 149 4.8 9.7 0.00 0.00 0.00 41 1010.9
20260904232238 35 152 4.8 11.3 0.00 0.00 0.00 41 1010.8
20260904231238 35 154 4.8 12.9 0.00 0.00 0.00 41 1010.8
20260904230738 35 153 6.4 14.5 0.00 0.00 0.00 41 1010.9
20260904230238 35 154 6.4 14.5 0.00 0.00 0.00 41 1010.8
20260904225738 35 156 6.4 11.3 0.00 0.00 0.00 41 1010.8
20260904224239 35 160 4.8 11.3 0.00 0.00 0.00 41 1010.9
20260904223740 36 163 4.8 11.3 0.00 0.00 0.00 42 1011.0
20260904223238 36 162 6.4 12.9 0.00 0.00 0.00 42 1011.0
20260904222739 35 157 6.4 14.5 0.00 0.00 0.00 42 1011.1
20260904222239 36 156 8.0 17.7 0.00 0.00 0.00 42 1011.1
20260904221738 36 154 6.4 17.7 0.00 0.00 0.00 41 1011.0
20260904221239 36 150 6.4 12.9 0.00 0.00 0.00 41 1011.0
20260904220738 36 148 4.8 12.9 0.00 0.00 0.00 41 1011.1
20260904220239 36 154 3.2 12.9 0.00 0.00 0.00 41 1011.2
20260904215239 35 154 4.8 9.7 0.00 0.00 0.00 43 1011.3
20260904214239 35 156 6.4 16.1 0.00 0.00 0.00 43 1011.5
20260904213739 36 150 8.0 16.1 0.00 0.00 0.00 43 1011.5
20260904213238 36 145 8.0 16.1 0.00 0.00 0.00 43 1011.5
20260904212738 36 144 8.0 14.5 0.00 0.00 0.00 43 1011.5
20260904211739 36 136 4.8 11.3 0.00 0.00 0.00 43 1011.6
20260904210738 36 150 6.4 14.5 0.00 0.00 0.00 43 1011.8
20260904210238 36 154 6.4 14.5 0.00 0.00 0.00 43 1011.8
20260904205239 36 160 6.4 17.7 0.00 0.00 0.00 43 1011.8
20260904204738 36 155 6.4 17.7 0.00 0.00 0.00 44 1012.0
20260904204239 36 152 6.4 12.9 0.00 0.00 0.00 44 1012.0
20260904203738 36 155 6.4 14.5 0.00 0.00 0.00 43 1012.1
20260904202739 36 163 4.8 14.5 0.00 0.00 0.00 40 1012.2
20260904202238 36 169 3.2 14.5 0.00 0.00 0.00 40 1012.1
20260904201738 36 164 3.2 9.7 0.00 0.00 0.00 41 1012.3
20260904201239 36 145 4.8 9.7 0.00 0.00 0.00 42 1012.3
20260904200238 35 133 4.8 12.9 0.00 0.00 0.00 44 1012.3
20260904195738 35 142 4.8 9.7 0.00 0.00 0.00 44 1012.5
20260904194238 35 150 4.8 11.3 0.00 0.00 0.00 47 1012.7
20260904193739 35 141 6.4 11.3 0.00 0.00 0.00 48 1012.6
20260904193239 35 143 6.4 11.3 0.00 0.00 0.00 47 1012.9
20260904192739 35 141 6.4 12.9 0.00 0.00 0.00 47 1012.9
20260904192238 35 138 6.4 12.9 0.00 0.00 0.00 47 1012.9
20260904191739 35 143 4.8 12.9 0.00 0.00 0.00 48 1013.0
20260904191238 35 150 4.8 12.9 0.00 0.00 0.00 49 1013.1
20260904190739 35 151 6.4 14.5 0.00 0.00 0.00 49 1013.2
20260904190239 35 143 6.4 14.5 0.00 0.00 0.00 48 1013.3
20260904185239 35 143 4.8 11.3 0.00 0.00 0.00 47 1013.4
20260904184739 35 150 4.8 11.3 0.00 0.00 0.00 47 1013.5
20260904184239 35 168 4.8 12.9 0.00 0.00 0.00 47 1013.5
20260904183738 35 172 4.8 12.9 0.00 0.00 0.00 46 1013.6
20260904183239 35 158 4.8 12.9 0.00 0.00 0.00 46 1013.6
20260904182739 35 158 4.8 14.5 0.00 0.00 0.00 47 1013.5
20260904182239 35 163 4.8 14.5 0.00 0.00 0.00 48 1013.6
20260904181738 35 166 4.8 12.9 0.00 0.00 0.00 47 1013.8
20260904181240 34 158 6.4 12.9 0.00 0.00 0.00 46 1013.8
20260904180740 34 153 6.4 16.1 0.00 0.00 0.00 43 1013.9
20260904180239 35 160 6.4 16.1 0.00 0.00 0.00 42 1013.9
20260904175738 35 160 4.8 12.9 0.00 0.00 0.00 43 1014.1
20260904175238 35 156 4.8 12.9 0.00 0.00 0.00 43 1014.1
20260904174739 35 167 3.2 11.3 0.00 0.00 0.00 44 1014.1
20260904174239 35 170 3.2 8.0 0.00 0.00 0.00 45 1014.1
20260904173739 34 173 4.8 9.7 0.00 0.00 0.00 44 1014.2
20260904173239 34 185 4.8 9.7 0.00 0.00 0.00 44 1014.2
20260904172739 33 169 4.8 12.9 0.00 0.00 0.00 48 1014.2
20260904172238 33 164 6.4 12.9 0.00 0.00 0.00 46 1014.3
20260904171740 33 161 6.4 14.5 0.00 0.00 0.00 49 1014.3
20260904171239 33 156 6.4 14.5 0.00 0.00 0.00 49 1014.3
20260904170739 33 158 6.4 14.5 0.00 0.00 0.00 49 1014.5
20260904170239 33 157 4.8 14.5 0.00 0.00 0.00 50 1014.5
20260904165740 33 169 3.2 12.9 0.00 0.00 0.00 49 1014.5
20260904165240 33 183 3.2 12.9 0.00 0.00 0.00 49 1014.5
20260904164740 33 191 3.2 11.3 0.00 0.00 0.00 47 1014.6
20260904164239 33 213 4.8 12.9 0.00 0.00 0.00 45 1014.6
20260904163739 33 222 4.8 16.1 0.00 0.00 0.00 51 1014.6
20260904163239 33 210 4.8 16.1 0.00 0.00 0.00 50 1014.6
20260904162739 33 206 3.2 11.3 0.00 0.00 0.00 52 1014.6
20260904161739 32 179 3.2 9.7 0.00 0.00 0.00 54 1014.6
20260904160740 32 190 4.8 9.7 0.00 0.00 0.00 58 1014.6
20260904155739 32 213 4.8 16.1 0.00 0.00 0.00 56 1014.6
20260904155239 32 204 4.8 16.1 0.00 0.00 0.00 58 1014.6
20260904154738 31 170 3.2 9.7 0.00 0.00 0.00 57 1014.6
20260904154239 31 172 4.8 8.0 0.00 0.00 0.00 58 1014.6
20260904153739 31 166 4.8 8.0 0.00 0.00 0.00 58 1014.6
20260904153240 31 167 4.8 8.0 0.00 0.00 0.00 59 1014.6
20260904152739 31 170 3.2 8.0 0.00 0.00 0.00 60 1014.5
20260904152239 31 179 3.2 9.7 0.00 0.00 0.00 61 1014.6
20260904151739 30 188 4.8 14.5 0.00 0.00 0.00 63 1014.6
20260904151238 30 184 3.2 14.5 0.00 0.00 0.00 63 1014.6
20260904150238 30 182 4.8 12.9 0.00 0.00 0.00 66 1014.6
20260904145238 30 194 3.2 11.3 0.00 0.00 0.00 70 1014.5
20260904144739 30 189 3.2 11.3 0.00 0.00 0.00 72 1014.5
20260904144239 29 189 3.2 12.9 0.00 0.00 0.00 74 1014.4
20260904143739 29 193 3.2 12.9 0.00 0.00 0.00 75 1014.4
20260904143240 28 183 3.2 8.0 0.00 0.00 0.00 77 1014.4
20260904142739 28 185 3.2 9.7 0.00 0.00 0.00 77 1014.4
20260904142239 28 177 3.2 9.7 0.00 0.00 0.00 77 1014.5
20260904141240 28 172 3.2 8.0 0.00 0.00 0.00 79 1014.5
20260904140739 28 170 3.2 11.3 0.00 0.00 0.00 81 1014.5
20260904140240 27 161 3.2 11.3 0.00 0.00 0.00 82 1014.5
20260904135739 27 155 3.2 11.3 0.00 0.00 0.00 83 1014.4
20260904135239 27 150 3.2 11.3 0.00 0.00 0.00 85 1014.5
20260904133739 27 151 3.2 8.0 0.00 0.00 0.00 87 1014.5
20260904133239 26 146 3.2 8.0 0.00 0.00 0.00 88 1014.4
20260904132740 26 149 1.6 6.4 0.00 0.00 0.00 89 1014.3
20260904131739 26 152 1.6 8.0 0.00 0.00 0.00 90 1014.2
20260904130739 26 165 1.6 3.2 0.00 0.00 0.00 91 1014.0
20260904130238 26 155 1.6 4.8 0.00 0.00 0.00 91 1014.0
20260904125738 26 149 1.6 4.8 0.00 0.00 0.00 91 1014.0
20260904125239 25 147 1.6 4.8 0.00 0.00 0.00 91 1013.9
20260904124739 25 152 1.6 4.8 0.00 0.00 0.00 91 1013.9
20260904124239 25 0 0.0 3.2 0.00 0.00 0.00 92 1013.8
20260904123739 25 0 0.0 1.6 0.00 0.00 0.00 92 1013.7
20260904123239 25 0 0.0 3.2 0.00 0.00 0.00 93 1013.7
20260904122738 25 0 0.0 3.2 0.00 0.00 0.00 93 1013.6
20260904122239 25 151 1.6 3.2 0.00 0.00 0.00 93 1013.6
20260904121739 25 157 1.6 3.2 0.00 0.00 0.00 93 1013.6
20260904115739 25 155 1.6 4.8 0.00 0.00 0.00 93 1013.3
20260904115239 25 154 1.6 3.2 0.00 0.00 0.00 92 1013.3
20260904114740 25 154 1.6 3.2 0.00 0.00 0.00 92 1013.3